#timestamp,LO_Frequency,Hit,StdDev 
1553094015.7,286047001.4,N
1553094035.5,286047000.4,N
1553094055.4,286047002.7,N
1553094075.2,286047002.6,N
1553094095.0,286047002.2,N
1553094095.9,286047002.2,N
1553094115.8,286046999.7,N
1553094135.6,286046999.9,N
1553094155.5,286047002.6,N
1553094175.3,286047001.4,N
1553094195.1,286047001.8,N
1553094215.9,286047002.7,N
1553094235.7,286047002.3,N
1553094255.5,286047001.6,N
1553094275.4,286047002.7,N
1553094295.2,286047001.8,N
1553094315.1,286047001.5,N
1553094316.0,286047001.5,N
1553094335.8,286047003.5,Y
1553094355.6,286047001.5,P
1553094375.5,286047001.9,P
1553094395.3,286047002.3,P
1553094415.1,286047000.3,N
1553094435.9,286047002.1,Y
1553094455.7,286046999.8,P
1553094475.6,286047000.4,N
1553094495.4,286046999.8,N
1553094515.2,286047002.0,N
1553094535.1,286047000.4,N
1553094536.0,286047000.4,N
1553094555.8,286047002.5,Y
1553094575.6,286047001.0,P
1553094595.5,286047000.9,P
1553094615.3,286047001.2,P
1553094635.2,286047000.4,N
1553094655.9,286046999.8,N
1553094675.7,286046999.7,N
1553094695.6,286047000.2,N
1553094715.4,286047000.9,N
1553094735.3,286047000.3,N
1553094755.1,286047000.8,N
1553094756.0,286047000.8,N
1553094775.8,286046998.1,Y
1553094795.7,286046999.5,P
1553094815.5,286046997.1,P
1553094835.3,286046995.2,P
1553094855.2,286046995.5,N
1553094875.0,286046994.1,N
1553094875.9,286046994.1,N
1553094895.8,286046994.3,N
1553094915.6,286046996.4,N
1553094935.4,286046996.3,N
1553094955.3,286046995.7,N
1553094975.1,286046995.9,N
1553094995.9,286046997.9,N
1553095015.7,286046995.7,N
1553095035.5,286046995.6,N
1553095055.4,286046995.3,N
1553095075.2,286046995.8,N
1553095095.0,286046995.2,N
1553095095.9,286046995.2,N
1553095115.8,286046995.7,N
1553095135.6,286046996.3,N
1553095155.5,286046993.7,Y
1553095175.3,286046996.5,P
1553095195.1,286046996.7,P
1553095215.9,286046997.1,P
1553095235.7,286046997.9,Y
1553095255.5,286047002.2,P
1553095305.4,286046998.6,E
1553095315.3,286047000.8,N
1553095335.2,286047000.4,P
1553095355.9,286046998.7,P
1553095375.7,286046998.1,N
1553095395.6,286047000.9,N
1553095415.4,286046998.6,N
1553095435.2,286047000.3,N
1553095455.1,286047000.1,N
1553095456.0,286047000.1,N
1553095475.8,286047000.6,N
1553095495.7,286046998.3,N
1553095515.5,286046998.5,N
1553095535.3,286047000.7,N
1553095555.2,286047000.3,N
1553095575.0,286046998.3,N
1553095575.9,286046998.3,N
1553095595.7,286046999.2,N
1553095615.6,286046998.8,N
1553095635.4,286046996.8,Y
1553095655.3,286046997.0,P
1553095675.1,286046997.7,N
1553095695.8,286046997.5,N
1553095715.7,286046995.9,Y
1553095735.5,286046998.9,P
1553095755.4,286047000.0,N
1553095775.2,286047002.4,N
1553095795.0,286046999.8,N
1553095795.9,286046999.8,N
1553095815.8,286047002.4,N
1553095835.6,286047002.6,N
1553095855.4,286047002.8,N
1553095875.3,286047002.8,N
1553095895.1,286046999.8,N
1553095915.9,286047000.6,N
1553095935.7,286046999.7,N
1553095955.5,286046998.2,N
1553095975.4,286046999.3,N
1553095995.2,286046999.1,N
1553096015.1,286046999.4,N
1553096016.0,286046999.4,N
1553096035.8,286046997.3,N
1553096055.6,286046999.6,N
1553096075.5,286046997.8,N
1553096095.3,286046997.8,N
1553096115.1,286046997.0,N
1553096135.9,286046999.5,N
1553096155.7,286046996.9,N
1553096175.6,286046997.7,N
1553096195.4,286046994.9,N
1553096215.2,286046994.9,N
1553096235.1,286046998.0,N
1553096236.0,286046998.0,N
1553096255.8,286046996.1,N
1553096275.7,286046995.4,N
1553096295.5,286046995.5,N
1553096315.3,286046995.1,N
1553096335.2,286046997.6,N
1553096355.0,286046995.1,N
1553096355.9,286046995.1,N
1553096375.8,286046997.9,N
1553096395.6,286046997.3,N
1553096415.4,286046999.0,N
1553096435.3,286046996.8,N
1553096455.1,286046997.8,N
1553096475.9,286046997.9,N
1553096495.7,286046997.5,N
1553096515.5,286046995.0,Y
1553096535.4,286047001.2,P
1553096555.2,286047000.8,N
1553096575.0,286046999.9,N
1553096575.9,286046999.9,N
1553096595.8,286047002.8,N
1553096615.6,286047002.6,N
1553096635.5,286047002.0,N
1553096655.3,286047000.6,N
1553096675.1,286046996.5,N
1553096695.9,286046999.2,N
1553096715.7,286046998.3,N
1553096735.6,286046999.1,N
1553096755.4,286046999.6,N
1553096775.2,286046997.3,N
1553096795.1,286046995.0,N
1553096796.0,286046995.0,N
1553096815.8,286046997.1,N
1553096835.6,286046998.0,N
1553096855.5,286046998.0,N
1553096875.3,286046997.2,N
1553096895.2,286046997.0,N
1553096915.0,286046997.8,N
1553096915.9,286046997.8,N
1553096935.7,286046999.6,N
1553096955.6,286046999.4,N
1553096975.4,286046998.7,N
1553096995.3,286047000.9,N
1553097015.1,286047001.0,N
1553097016.0,286047001.0,N
1553097035.8,286047000.4,N
1553097055.7,286047000.5,N
1553097075.5,286047002.1,N
1553097095.4,286046999.8,N
1553097115.2,286047000.4,N
1553097135.0,286047002.5,N
1553097135.9,286047002.5,N
1553097155.8,286047002.1,N
1553097175.6,286047002.4,N
1553097195.4,286047002.2,N
1553097215.3,286047002.2,N
1553097235.1,286047011.9,Y
1553097255.9,286047003.9,P
1553097275.7,286047003.1,N
1553097295.5,286047003.4,N
1553097315.4,286047003.4,N
1553097335.2,286047004.0,N
1553097355.0,286047001.9,N
1553097355.9,286047001.9,N
1553097375.8,286047002.5,N
1553097395.6,286047001.5,N
1553097415.4,286047002.7,N
1553097435.3,286047004.3,Y
1553097455.1,286047000.4,P
1553097475.9,286047000.5,N
1553097495.7,286047000.2,N
1553097515.5,286047000.0,N
1553097535.4,286047001.0,N
1553097555.2,286047000.6,N
1553097575.1,286047002.4,Y
1553097576.0,286047002.4,P
1553097595.8,286047002.8,P
